Regional Weather Roundup
Issued by NWS

Home | Current Version | Previous Version | Graphics & Text | Print | Product List | Glossary On
Versions: 1 2 3 4 5 6 7 8 9 10 11 12 13 14 15 16 17 18 19 20 21 22 23 24 25 26 27 28 29 30 31 32 33 34 35 36 37 38 39 40 41 42 43 44 45 46 47 48 49 50
000
ASUS43 KMKX 250400
RWRWI

WISCONSIN REGIONAL WEATHER ROUNDUP
NATIONAL WEATHER SERVICE MILWAUKEE/SULLIVAN WI
1100 PM CDT SUN SEP 24 2017

NOTE: "FAIR" INDICATES FEW OR NO CLOUDS BELOW 12,000 FEET WITH NO
SIGNIFICANT WEATHER AND/OR OBSTRUCTIONS TO VISIBILITY.

WIZ001-002-006>008-014>016-023>028-250500-
NORTHWEST WISCONSIN

CITY           SKY/WX    TMP DP  RH WIND       PRES   REMARKS
SUPERIOR ARPT  PTCLDY    65  65 100 CALM      29.87S
ASHLAND        CLOUDY    75  63  66 W7        29.89R
HAYWARD        CLOUDY    72  64  76 CALM      29.92S
SIREN          CLOUDY    68  67  94 SE5       29.90S
CUMBERLAND     CLOUDY    73  61  64 CALM      29.92F
RICE LAKE      CLOUDY    75  62  64 SW7       29.93R
CHETEK         CLOUDY    74  63  69 S5        29.91S
LADYSMITH      CLEAR     73  60  63 SE6       29.94F
EAU CLAIRE     NOT AVBL
MENOMONIE      PTCLDY    73  63  71 SE7       29.91R
NEW RICHMOND   MOCLDY    71  63  76 SW3       29.93R
OSCEOLA        CLOUDY    71  65  83 S5        29.94R
$$

WIZ003>005-009-010-017-018-250500-
NORTH CENTRAL WISCONSIN

CITY           SKY/WX    TMP DP  RH WIND       PRES   REMARKS
MANITOWISH WTR NOT AVBL
ARBOR VITAE    CLEAR     72  62  71 S6        29.98S
WOODRUFF       CLEAR     72  62  71 S6        29.98S
RHINELANDER    CLEAR     72  61  68 S5        29.99F
EAGLE RIVER    CLEAR     69  59  70 CALM      29.98S
LAND O LAKES   CLEAR     71  61  71 S5        30.00R
PHILLIPS       CLOUDY    71  60  69 S7        29.95F
TOMAHAWK       CLEAR     62  58  88 CALM      29.98F
MEDFORD        CLEAR     65  60  81 SE6       29.98S
MERRILL        CLEAR     64  60  87 CALM      29.99S
$$

WIZ029-030-035-036-043>047-250500-
CENTRAL WISCONSIN

CITY           SKY/WX    TMP DP  RH WIND       PRES   REMARKS
WAUSAU         CLEAR     71  60  68 CALM      29.97S
MOSINEE        CLEAR     64  59  82 SE3       30.00S
MARSHFIELD     CLEAR     68  59  73 S6        29.97S
STEVENS POINT  CLEAR     70  58  66 S5        29.99S
WAUPACA        CLEAR     68  65  90 CALM      29.99S
WAUTOMA        CLEAR     65  63  93 CALM      29.99S
WISC RAPIDS    CLEAR     70  60  70 S3        29.99S
CAMP DOUGLAS   NOT AVBL
$$

WIZ011>013-019>022-031-037>040-048>050-250500-
NORTHEAST WISCONSIN

CITY           SKY/WX    TMP DP  RH WIND       PRES   REMARKS
ANTIGO         CLEAR     66  61  83 S6        30.01S
SHAWANO        CLEAR     73  64  72 S5        29.98S
OCONTO         CLEAR     73  62  68 S3        29.98S
STURGEON BAY   CLEAR     72  61  68 S8        30.00S
GREEN BAY      CLEAR     72  62  71 SW7       29.99S
MANITOWOC      CLEAR     70  61  73 S6        30.01S
APPLETON       CLEAR     73  61  64 S8        29.99S
CLINTONVILLE   CLEAR     68  63  83 S5        29.98F
OSHKOSH        CLEAR     68  62  81 S7        29.99S
$$

WIZ032>034-041-042-053>061-250500-
SOUTHWEST WISCONSIN

CITY           SKY/WX    TMP DP  RH WIND       PRES   REMARKS
LA CROSSE      CLEAR     76  64  66 S3        29.93S
SPARTA         CLEAR     78  62  57 S9        29.96S
VIROQUA        CLEAR     74  62  66 S7        29.98S
BOSCOBEL       CLEAR     69  64  84 CALM      29.96S
PRAIRIE DU CHI CLEAR     72  61  68 NE3       29.96R
PLATTEVILLE    CLEAR     73  63  72 SE7       29.99F
$$

WIZ056-057-062-063-064-067-068-250500-
SOUTH CENTRAL WISCONSIN

CITY           SKY/WX    TMP DP  RH WIND       PRES   REMARKS
REEDSBURG      CLEAR     67  62  85 CALM      29.98S
BARABOO/DELLS  CLEAR     69  58  69 S3        29.99S
LONE ROCK      NOT AVBL
MINERAL POINT  CLEAR     73  61  64 SE5       30.00F
MADISON        CLEAR     75  61  61 S6        29.99S
MIDDLETON      CLEAR     66  63  89 CALM      30.00F
WATERTOWN      CLEAR     71  62  73 SE3       30.01R
MONROE         CLEAR     73  59  60 S7        30.00S
JANESVILLE     CLEAR     70  59  68 CALM      30.00S
$$

WIZ051-052-058>065-066-070>072-250500-
SOUTHEAST WISCONSIN

CITY           SKY/WX    TMP DP  RH WIND       PRES   REMARKS
MILWAUKEE      CLEAR     75  63  66 S6        30.01F
WAUKESHA       CLEAR     73  57  56 S6        30.03
MILWAUKEE/TIMM CLEAR     73  55  53 S5        30.02F
RACINE         CLEAR     71  64  78 S3        30.03F
BURLINGTON     CLEAR     64  62  93 CALM      30.02S
KENOSHA        CLEAR     74  61  63 SE6       30.02S
FOND DU LAC    CLEAR     74  58  57 S8        30.00S
SHEBOYGAN      CLEAR     66  64  93 CALM      30.01S
WEST BEND        N/A     64  63  94 CALM      30.02S
JUNEAU         CLEAR     70  61  72 SE7       30.02S
$$

LSZ147-162-250500-
LAKE SUPERIOR

STATION/POSITION TIME  TEMP    WIND        PRES    WAVE
                       AIR SEA DIR/SP/G            HT/PER
                 (UTC) (F)     (DEG/KT/KT) (MB)    (FT/S)
W MID LAKE BUOY  0250   64 55  180/ 10/ 12 1010.5F   0
DEVILS ISLAND    0300   69     270/ 14/ 15 1011.1R
PORT WING        0340   67     110/  5/  6 1011.5F
SAXON HARBOR     0330   79     200/  6/ 12 1010.8S
$$

LMZ867-665-643>646-250500-
LAKE MICHIGAN

STATION/POSITION TIME  TEMP    WIND        PRES    WAVE
                       AIR SEA DIR/SP/G            HT/PER
                 (UTC) (F)     (DEG/KT/KT) (MB)    (FT/S)
S GREEN BAY BUOY 0200   74 70  180/ 10/ 12 1015.2F
N MID LAKE BUOY  0250   69 67  160/ 10/ 12 1016.3F   1/ 3
NORTHPORT PIER   0340   74     170/  3/  9 1014.9F
KEWAUNEE LAKESHO 0330   66     160/  6/  7 1015.2S
SHEBOYGAN LAKESH 0300   74     190/  9/ 10 1015.7F
PORT WASHINGTON  0340   71     170/  1/  2 1016.9F
ATWATER BUOY     0209   68 58  170/  6/  8 1016.6F
MILWAUKEE LAKESH 0330   69      30/  1/  1   N/A
S MID LAKE BUOY  0250   73 71   80/  8/  8 1016.7S   0
KENOSHA   LAKESH 0300   78     170/ 10/ 11 1015.9
$$

TC  - TEMPERATURE IN CELSIUS
VSB - VISIBILITY IN STATUTE MILES
WCI - WIND CHILL INDEX
HX  - HEAT INDEX




USA.gov is the U.S. government's official web portal to all federal, state and local government web resources and services.